Location: Petruro
(41.0333°N, 14.7833°E)
Time: 09:08:56
(UTC+00:00)

SL-16 R/B - Pass Details

Date: 20 June 2021
Orbit: 985 x 1007 km, 99.5° (Epoch: 26 July)

Event Time Altitude Azimuth Distance (km) Brightness Sun altitude
Exits shadow 00:59:51 29° 178° (S) 1,721 3.3 -20.0°
Maximum altitude 01:03:09 72° 256° (WSW) 1,040 2.5 -19.7°
Drops below altitude 10° 01:09:21 10° 341° (NNW) 2,757 5.4 -19.1°
Sets 01:11:50 0° 344° (NNW) 3,708 6.2 -18.9°
